Vorticity
23 42 2 10 12 11 9 5 1 3 1 5 6 5 11 14 10 4 7 5 3 7 7 9 10 7 7 9 10 10 6 8 8 10 12 10 5 10 13 8 10 8 4 10
28 35 -20 46 22 25 23 32 15 14 17 12 9 10 6 2 4 5 4 6 6 4 5 7 -1 1 15 17 15 10 8 5 1 4 4 -2 -3 5 8 13 8 3 1 3
5 8 16 -3 -4 -14 24 -1 23 14 10 24 11 5 9 9 7 9 11 3 -2 11 7 9 18 14 13 -3 -20 8 17 7 1 14 20 23 26 9 6 4 -15 7 -3 10
2 29 6 18 6 28 24 7 9 -10 -5 1 3 15 13 3 11 0 5 11 20 14 13 10 -1 2 8 12 12 10 10 17 11 -2 -15 -11 -7 -5 -4 -3 18 8 15 0
21 7 15 42 7 -13 -1 7 5 13 19 17 19 12 9 15 8 26 2 9 8 17 12 13 12 2 4 15 18 12 7 2 8 21 23 23 17 11 14 18 11 6 12 10
9 18 22 10 -7 6 -4 28 14 3 10 -27 -18 3 7 11 12 4 13 24 10 5 9 -7 11 -8 3 9 5 1 8 10 13 7 1 -1 -7 8 10 10 7 5 9 8
-3 -3 -1 6 24 5 11 -18 -7 -22 7 15 7 -5 11 10 1 8 -3 9 2 5 1 11 11 13 19 9 8 6 6 11 9 10 9 6 15 13 10 4 6 6 10 15
13 6 9 7 5 -3 8 17 8 36 17 19 32 -16 21 8 17 5 4 10 -6 17 16 -6 10 7 8 4 8 15 15 14 12 7 6 5 4 6 7 7 7 15 14 10
14 14 15 12 16 9 11 -8 46 3 15 23 4 9 14 -4 15 11 -6 12 18 17 13 11 -0 12 20 13 14 9 9 4 1 8 7 7 6 12 17 12 12 14 16 21
20 22 22 23 20 24 -13 6 -1 13 17 -13 18 1 6 17 1 0 -3 6 14 10 18 19 20 16 7 6 9 10 8 10 7 7 9 15 15 15 12 20 17 25 17 23
24 22 17 17 16 17 18 16 12 13 9 19 -6 18 18 4 -5 6 1 7 12 10 15 7 6 7 8 10 8 8 5 10 14 13 15 18 23 25 22 23 22 27 28 20
3 18 18 15 13 -0 9 18 22 15 12 14 11 17 0 -2 -1 6 10 11 15 14 14 14 12 8 5 4 9 15 20 16 17 23 24 22 21 30 21 23 25 15 15 16
6 1 3 6 6 0 2 1 3 9 8 7 -2 -3 4 6 10 14 12 14 13 12 2 5 6 11 17 16 15 18 18 22 25 27 24 25 28 18 18 15 11 11 10 11
8 13 10 5 8 6 8 9 10 11 2 2 4 8 7 10 17 16 8 4 7 8 11 13 12 19 21 21 19 24 26 29 20 18 11 10 12 10 15 15 19 18 19 19
10 7 3 -0 5 11 14 15 15 15 12 13 13 14 13 11 9 4 7 11 9 12 21 21 19 22 26 28 28 21 13 12 12 16 19 24 17 16 16 16 13 13 15 16
13 11 11 11 11 13 10 12 9 8 9 9 7 5 9 13 12 6 14 21 23 22 19 20 29 30 27 17 13 14 19 23 24 22 12 11 8 8 7 7 7 8 10 10
8 9 8 8 7 6 8 6 9 12 12 10 11 8 9 16 22 24 25 20 21 27 31 26 22 13 15 20 22 27 17 10 8 7 4 3 8 4 5 5 6 5 7 8
13 3 3 4 6 10 12 12 10 10 9 15 22 23 34 25 22 25 29 30 28 23 16 15 17 24 24 17 12 6 4 4 6 6 6 5 3 4 4 4 4 2 3 5
7 9 11 11 9 10 14 16 24 29 25 30 31 27 27 35 31 29 16 11 15 21 22 23 16 10 5 3 4 5 6 5 3 2 5 5 5 3 3 4 3 3 4 4
19 22 27 30 30 35 33 36 29 29 31 34 32 33 23 9 21 23 25 29 21 11 8 0 5 5 6 6 6 5 5 6 8 8 5 6 6 6 6 5 5 5 5 5
33 32 32 33 29 28 32 31 25 31 22 17 24 25 29 28 19 11 8 3 2 5 5 9 8 8 10 9 9 9 9 9 9 11 9 8 8 8 6 4 4 4 4 4
23 22 29 33 33 25 23 29 32 28 27 16 9 5 3 5 7 7 5 7 11 13 8 8 8 7 8 8 8 7 7 7 6 7 8 8 7 6 5 5 6 7 8 8
31 28 26 33 34 20 12 5 4 5 6 7 8 7 9 10 12 13 7 8 5 7 6 8 6 7 7 8 10 9 9 9 10 9 8 7 6 6 6 7 7 8 9 9
38 37 18 6 6 8 8 7 7 7 8 9 9 8 7 11 12 13 15 14 4 9 7 7 8 10 10 8 8 8 7 6 6 6 6 6 7 7 8 8 9 13 17 18
9 9 8 7 8 9 10 10 11 10 9 13 16 17 19 15 13 12 8 12 8 7 8 8 8 7 6 6 6 5 6 5 4 4 6 8 11 15 17 19 19 18 18 19
10 10 8 9 10 12 13 13 13 15 16 17 16 16 14 15 13 15 13 12 12 11 9 8 6 5 5 5 5 7 11 15 18 19 17 16 17 19 20 23 24 24 21 21
12 12 11 10 11 13 13 14 14 12 11 10 11 11 13 11 12 10 10 8 10 9 7 5 6 8 15 23 24 19 14 15 18 22 26 27 27 25 24 25 23 22 25 25
Height
5669 5670 5672 5673 5673 5674 5671 5672 5671 5675 5676 5676 5675 5676 5677 5677 5676 5675 5673 5671 5670 5669 5667 5663 5662 5662 5658 5657 5654 5650 5647 5643 5643 5641 5637 5634 5631 5627 5621 5611 5607 5603 5595 5606
5656 5659 5662 5659 5661 5662 5661 5660 5660 5662 5662 5660 5662 5665 5664 5662 5662 5661 5659 5658 5657 5655 5654 5648 5648 5646 5646 5642 5641 5635 5633 5628 5625 5623 5622 5619 5614 5610 5602 5595 5589 5589 5577 5583
5644 5646 5648 5650 5652 5653 5653 5649 5647 5649 5647 5649 5651 5651 5650 5649 5649 5648 5646 5644 5643 5642 5640 5636 5633 5632 5630 5627 5624 5621 5615 5613 5611 5608 5601 5600 5596 5592 5585 5576 5571 5567 5567 5560
5634 5635 5636 5637 5640 5640 5639 5638 5637 5639 5636 5639 5639 5637 5635 5636 5635 5634 5633 5630 5630 5626 5623 5621 5618 5617 5615 5612 5607 5603 5597 5595 5592 5591 5585 5579 5578 5575 5568 5559 5554 5539 5551 5534
5619 5623 5626 5626 5628 5629 5627 5626 5627 5627 5626 5625 5624 5623 5625 5624 5621 5620 5617 5615 5615 5611 5609 5607 5604 5601 5598 5595 5592 5585 5582 5576 5573 5571 5565 5559 5558 5554 5547 5541 5534 5522 5515 5515
5608 5611 5613 5614 5616 5618 5617 5615 5615 5616 5614 5615 5613 5613 5611 5610 5608 5605 5604 5602 5600 5597 5595 5592 5590 5587 5582 5577 5575 5570 5565 5559 5554 5550 5545 5539 5539 5535 5527 5520 5514 5504 5496 5490
5596 5599 5601 5603 5605 5607 5606 5607 5606 5604 5603 5600 5601 5598 5599 5598 5596 5592 5590 5589 5586 5584 5580 5577 5573 5570 5566 5562 5558 5553 5548 5541 5533 5529 5522 5517 5515 5508 5502 5495 5488 5477 5468 5458
5582 5585 5587 5587 5591 5590 5592 5594 5592 5592 5589 5589 5588 5588 5587 5584 5581 5578 5576 5574 5570 5567 5565 5561 5556 5555 5550 5546 5542 5535 5529 5522 5514 5507 5501 5499 5494 5486 5479 5472 5469 5455 5446 5436
5568 5570 5573 5575 5578 5582 5583 5579 5581 5578 5577 5574 5573 5573 5573 5571 5568 5566 5563 5558 5554 5551 5547 5544 5540 5535 5531 5526 5522 5517 5511 5505 5498 5490 5480 5472 5469 5463 5454 5445 5441 5432 5421 5412
5556 5558 5560 5563 5565 5566 5565 5563 5567 5568 5566 5562 5562 5561 5559 5557 5555 5551 5547 5543 5540 5535 5531 5526 5522 5518 5514 5508 5504 5500 5492 5485 5477 5469 5457 5451 5446 5439 5432 5424 5420 5407 5399 5392
5548 5549 5551 5553 5554 5556 5557 5556 5557 5558 5555 5553 5551 5549 5546 5543 5540 5536 5533 5529 5524 5519 5515 5510 5506 5501 5496 5491 5486 5479 5474 5466 5459 5449 5439 5432 5426 5415 5411 5403 5394 5387 5380 5372
5542 5542 5543 5544 5545 5546 5546 5545 5545 5545 5544 5541 5539 5535 5532 5529 5525 5521 5517 5513 5508 5503 5499 5494 5488 5484 5479 5473 5467 5460 5453 5446 5439 5431 5422 5411 5402 5397 5388 5384 5380 5371 5364 5356
5534 5535 5534 5534 5535 5535 5536 5534 5533 5532 5529 5527 5525 5521 5517 5513 5510 5507 5503 5497 5492 5488 5483 5477 5472 5466 5460 5454 5447 5440 5433 5426 5420 5412 5407 5399 5390 5383 5378 5372 5365 5359 5351 5345
5526 5526 5525 5525 5525 5525 5524 5522 5520 5519 5516 5512 5510 5506 5503 5499 5495 5491 5487 5482 5477 5472 5467 5461 5454 5448 5442 5435 5429 5422 5416 5410 5407 5401 5393 5390 5377 5372 5367 5360 5353 5346 5339 5331
5517 5516 5515 5514 5513 5512 5510 5508 5506 5505 5504 5499 5495 5492 5489 5484 5480 5476 5471 5466 5461 5455 5449 5443 5438 5431 5427 5420 5415 5410 5405 5400 5396 5391 5384 5377 5370 5363 5356 5351 5343 5335 5328 5321
5506 5504 5503 5502 5501 5499 5498 5496 5494 5491 5489 5486 5483 5478 5474 5470 5465 5460 5454 5449 5444 5439 5434 5429 5423 5419 5415 5411 5406 5401 5396 5390 5385 5380 5374 5367 5361 5354 5347 5341 5333 5325 5317 5308
5494 5492 5491 5490 5488 5487 5485 5483 5480 5477 5474 5471 5467 5462 5458 5453 5449 5444 5439 5435 5430 5426 5423 5419 5415 5411 5408 5402 5398 5394 5389 5383 5378 5372 5368 5361 5352 5347 5339 5332 5324 5315 5306 5296
5482 5480 5478 5477 5475 5473 5470 5467 5464 5461 5459 5456 5452 5448 5445 5440 5436 5433 5428 5425 5422 5419 5415 5413 5409 5406 5401 5398 5393 5388 5383 5377 5371 5365 5358 5352 5345 5336 5328 5320 5312 5306 5296 5286
5468 5466 5464 5463 5462 5459 5456 5453 5451 5447 5448 5442 5440 5437 5435 5431 5428 5426 5424 5421 5418 5416 5413 5410 5407 5402 5398 5393 5388 5382 5376 5370 5364 5357 5349 5341 5334 5326 5317 5309 5300 5292 5284 5274
5455 5454 5453 5450 5448 5445 5444 5441 5440 5439 5436 5434 5433 5431 5430 5430 5427 5424 5423 5420 5417 5414 5413 5408 5404 5400 5395 5389 5382 5375 5368 5361 5354 5347 5341 5332 5324 5314 5306 5297 5288 5278 5269 5261
5443 5442 5441 5441 5440 5439 5438 5437 5438 5436 5435 5435 5433 5432 5431 5429 5428 5426 5424 5421 5419 5416 5412 5407 5402 5397 5390 5383 5376 5368 5361 5353 5344 5335 5327 5317 5308 5301 5293 5285 5274 5264 5255 5245
5439 5440 5439 5440 5439 5440 5440 5439 5439 5440 5439 5439 5438 5438 5436 5434 5431 5429 5426 5423 5419 5414 5410 5404 5397 5391 5382 5375 5368 5360 5351 5342 5332 5321 5312 5303 5294 5283 5274 5265 5256 5247 5237 5227
5441 5442 5444 5443 5444 5446 5446 5447 5447 5447 5446 5445 5443 5441 5439 5437 5434 5431 5427 5422 5417 5412 5405 5398 5391 5384 5376 5367 5358 5349 5339 5329 5320 5310 5299 5288 5278 5268 5256 5247 5236 5227 5218 5208
5448 5451 5450 5450 5452 5454 5454 5454 5453 5453 5452 5451 5449 5447 5444 5440 5436 5430 5424 5419 5412 5406 5399 5392 5385 5377 5367 5357 5347 5337 5327 5316 5305 5294 5282 5271 5260 5250 5239 5227 5217 5207 5198 5188
5462 5460 5456 5458 5461 5461 5462 5462 5461 5460 5458 5457 5454 5450 5446 5440 5434 5427 5421 5415 5410 5402 5395 5387 5378 5369 5358 5347 5336 5324 5313 5301 5289 5275 5263 5251 5239 5228 5218 5207 5196 5185 5176 5167
5469 5465 5467 5469 5471 5470 5470 5469 5468 5467 5465 5463 5459 5453 5446 5439 5433 5429 5423 5417 5409 5401 5392 5382 5371 5361 5348 5335 5322 5309 5295 5281 5267 5254 5241 5229 5217 5205 5194 5185 5174 5165 5156 5148
5477 5476 5479 5480 5480 5480 5479 5478 5477 5475 5472 5468 5462 5454 5449 5443 5436 5429 5422 5415 5409 5401 5391 5379 5364 5350 5336 5322 5307 5292 5277 5263 5248 5233 5220 5208 5196 5185 5175 5166 5158 5149 5141 5133